Index of /20260430/WXO-DD/model_gdps/15km/12/228
Name Last modified Size Description
Parent Directory -
20260430T12Z_MSC_GDPS_AbsoluteVorticity_IsbL-0200_LatLon0.15_PT228H.grib2 2026-04-30 16:38 1.2M
20260430T12Z_MSC_GDPS_AbsoluteVorticity_IsbL-0250_LatLon0.15_PT228H.grib2 2026-04-30 16:38 1.3M
20260430T12Z_MSC_GDPS_AbsoluteVorticity_IsbL-0500_LatLon0.15_PT228H.grib2 2026-04-30 16:38 1.2M
20260430T12Z_MSC_GDPS_AbsoluteVorticity_IsbL-0700_LatLon0.15_PT228H.grib2 2026-04-30 16:38 1.3M
20260430T12Z_MSC_GDPS_AbsoluteVorticity_IsbL-0850_LatLon0.15_PT228H.grib2 2026-04-30 16:38 1.6M
20260430T12Z_MSC_GDPS_AirTemp-Max_AGL-2m_LatLon0.15_PT228H.grib2 2026-04-30 16:38 747K
20260430T12Z_MSC_GDPS_AirTemp-Min_AGL-2m_LatLon0.15_PT228H.grib2 2026-04-30 16:38 796K
20260430T12Z_MSC_GDPS_AirTemp_AGL-120m_LatLon0.15_PT228H.grib2 2026-04-30 16:38 910K
20260430T12Z_MSC_GDPS_AirTemp_AGL-2m_LatLon0.15_PT228H.grib2 2026-04-30 16:38 1.0M
20260430T12Z_MSC_GDPS_AirTemp_AGL-40m_LatLon0.15_PT228H.grib2 2026-04-30 16:38 932K
20260430T12Z_MSC_GDPS_AirTemp_AGL-80m_LatLon0.15_PT228H.grib2 2026-04-30 16:38 919K
20260430T12Z_MSC_GDPS_AirTemp_IsbL-0001_LatLon0.15_PT228H.grib2 2026-04-30 16:38 663K
20260430T12Z_MSC_GDPS_AirTemp_IsbL-0005_LatLon0.15_PT228H.grib2 2026-04-30 16:38 533K
20260430T12Z_MSC_GDPS_AirTemp_IsbL-0010_LatLon0.15_PT228H.grib2 2026-04-30 16:38 700K
20260430T12Z_MSC_GDPS_AirTemp_IsbL-0020_LatLon0.15_PT228H.grib2 2026-04-30 16:38 719K
20260430T12Z_MSC_GDPS_AirTemp_IsbL-0030_LatLon0.15_PT228H.grib2 2026-04-30 16:38 835K
20260430T12Z_MSC_GDPS_AirTemp_IsbL-0050_LatLon0.15_PT228H.grib2 2026-04-30 16:38 881K
20260430T12Z_MSC_GDPS_AirTemp_IsbL-0100_LatLon0.15_PT228H.grib2 2026-04-30 16:38 964K
20260430T12Z_MSC_GDPS_AirTemp_IsbL-0150_LatLon0.15_PT228H.grib2 2026-04-30 16:38 964K
20260430T12Z_MSC_GDPS_AirTemp_IsbL-0175_LatLon0.15_PT228H.grib2 2026-04-30 16:38 949K
20260430T12Z_MSC_GDPS_AirTemp_IsbL-0200_LatLon0.15_PT228H.grib2 2026-04-30 16:38 958K
20260430T12Z_MSC_GDPS_AirTemp_IsbL-0225_LatLon0.15_PT228H.grib2 2026-04-30 16:38 963K
20260430T12Z_MSC_GDPS_AirTemp_IsbL-0250_LatLon0.15_PT228H.grib2 2026-04-30 16:38 1.0M
20260430T12Z_MSC_GDPS_AirTemp_IsbL-0275_LatLon0.15_PT228H.grib2 2026-04-30 16:38 1.0M
20260430T12Z_MSC_GDPS_AirTemp_IsbL-0300_LatLon0.15_PT228H.grib2 2026-04-30 16:38 939K
20260430T12Z_MSC_GDPS_AirTemp_IsbL-0350_LatLon0.15_PT228H.grib2 2026-04-30 16:38 928K
20260430T12Z_MSC_GDPS_AirTemp_IsbL-0400_LatLon0.15_PT228H.grib2 2026-04-30 16:38 938K
20260430T12Z_MSC_GDPS_AirTemp_IsbL-0450_LatLon0.15_PT228H.grib2 2026-04-30 16:38 962K
20260430T12Z_MSC_GDPS_AirTemp_IsbL-0500_LatLon0.15_PT228H.grib2 2026-04-30 16:38 1.0M
20260430T12Z_MSC_GDPS_AirTemp_IsbL-0550_LatLon0.15_PT228H.grib2 2026-04-30 16:38 800K
20260430T12Z_MSC_GDPS_AirTemp_IsbL-0600_LatLon0.15_PT228H.grib2 2026-04-30 16:38 891K
20260430T12Z_MSC_GDPS_AirTemp_IsbL-0650_LatLon0.15_PT228H.grib2 2026-04-30 16:38 915K
20260430T12Z_MSC_GDPS_AirTemp_IsbL-0700_LatLon0.15_PT228H.grib2 2026-04-30 16:38 950K
20260430T12Z_MSC_GDPS_AirTemp_IsbL-0750_LatLon0.15_PT228H.grib2 2026-04-30 16:38 1.0M
20260430T12Z_MSC_GDPS_AirTemp_IsbL-0800_LatLon0.15_PT228H.grib2 2026-04-30 16:38 1.1M
20260430T12Z_MSC_GDPS_AirTemp_IsbL-0850_LatLon0.15_PT228H.grib2 2026-04-30 16:38 1.1M
20260430T12Z_MSC_GDPS_AirTemp_IsbL-0875_LatLon0.15_PT228H.grib2 2026-04-30 16:38 1.2M
20260430T12Z_MSC_GDPS_AirTemp_IsbL-0900_LatLon0.15_PT228H.grib2 2026-04-30 16:38 1.1M
20260430T12Z_MSC_GDPS_AirTemp_IsbL-0925_LatLon0.15_PT228H.grib2 2026-04-30 16:38 1.1M
20260430T12Z_MSC_GDPS_AirTemp_IsbL-0950_LatLon0.15_PT228H.grib2 2026-04-30 16:38 1.1M
20260430T12Z_MSC_GDPS_AirTemp_IsbL-0970_LatLon0.15_PT228H.grib2 2026-04-30 16:38 1.2M
20260430T12Z_MSC_GDPS_AirTemp_IsbL-0985_LatLon0.15_PT228H.grib2 2026-04-30 16:38 1.1M
20260430T12Z_MSC_GDPS_AirTemp_IsbL-1000_LatLon0.15_PT228H.grib2 2026-04-30 16:38 1.1M
20260430T12Z_MSC_GDPS_AirTemp_IsbL-1015_LatLon0.15_PT228H.grib2 2026-04-30 16:38 1.1M
20260430T12Z_MSC_GDPS_Albedo_Sfc_LatLon0.15_PT228H.grib2 2026-04-30 16:38 243K
20260430T12Z_MSC_GDPS_CAPE_Sfc_LatLon0.15_PT228H.grib2 2026-04-30 16:38 4.0M
20260430T12Z_MSC_GDPS_CIN_Sfc_LatLon0.15_PT228H.grib2 2026-04-30 16:38 2.9M
20260430T12Z_MSC_GDPS_CloudWater_EAtm_LatLon0.15_PT228H.grib2 2026-04-30 16:38 540K
20260430T12Z_MSC_GDPS_ConvectivePrecip-Accum_Sfc_LatLon0.15_PT228H.grib2 2026-04-30 16:38 3.8M
20260430T12Z_MSC_GDPS_DewPointDepression_AGL-2m_LatLon0.15_PT228H.grib2 2026-04-30 16:38 763K
20260430T12Z_MSC_GDPS_DewPointDepression_IsbL-0010_LatLon0.15_PT228H.grib2 2026-04-30 16:38 60K
20260430T12Z_MSC_GDPS_DewPointDepression_IsbL-0020_LatLon0.15_PT228H.grib2 2026-04-30 16:38 77K
20260430T12Z_MSC_GDPS_DewPointDepression_IsbL-0030_LatLon0.15_PT228H.grib2 2026-04-30 16:38 91K
20260430T12Z_MSC_GDPS_DewPointDepression_IsbL-0050_LatLon0.15_PT228H.grib2 2026-04-30 16:38 384K
20260430T12Z_MSC_GDPS_DewPointDepression_IsbL-0100_LatLon0.15_PT228H.grib2 2026-04-30 16:38 397K
20260430T12Z_MSC_GDPS_DewPointDepression_IsbL-0150_LatLon0.15_PT228H.grib2 2026-04-30 16:38 496K
20260430T12Z_MSC_GDPS_DewPointDepression_IsbL-0175_LatLon0.15_PT228H.grib2 2026-04-30 16:38 579K
20260430T12Z_MSC_GDPS_DewPointDepression_IsbL-0200_LatLon0.15_PT228H.grib2 2026-04-30 16:38 680K
20260430T12Z_MSC_GDPS_DewPointDepression_IsbL-0225_LatLon0.15_PT228H.grib2 2026-04-30 16:38 773K
20260430T12Z_MSC_GDPS_DewPointDepression_IsbL-0250_LatLon0.15_PT228H.grib2 2026-04-30 16:38 865K
20260430T12Z_MSC_GDPS_DewPointDepression_IsbL-0275_LatLon0.15_PT228H.grib2 2026-04-30 16:38 886K
20260430T12Z_MSC_GDPS_DewPointDepression_IsbL-0300_LatLon0.15_PT228H.grib2 2026-04-30 16:38 924K
20260430T12Z_MSC_GDPS_DewPointDepression_IsbL-0350_LatLon0.15_PT228H.grib2 2026-04-30 16:38 957K
20260430T12Z_MSC_GDPS_DewPointDepression_IsbL-0400_LatLon0.15_PT228H.grib2 2026-04-30 16:38 1.0M
20260430T12Z_MSC_GDPS_DewPointDepression_IsbL-0450_LatLon0.15_PT228H.grib2 2026-04-30 16:38 1.0M
20260430T12Z_MSC_GDPS_DewPointDepression_IsbL-0500_LatLon0.15_PT228H.grib2 2026-04-30 16:38 1.0M
20260430T12Z_MSC_GDPS_DewPointDepression_IsbL-0550_LatLon0.15_PT228H.grib2 2026-04-30 16:38 1.0M
20260430T12Z_MSC_GDPS_DewPointDepression_IsbL-0600_LatLon0.15_PT228H.grib2 2026-04-30 16:38 1.1M
20260430T12Z_MSC_GDPS_DewPointDepression_IsbL-0650_LatLon0.15_PT228H.grib2 2026-04-30 16:38 1.1M
20260430T12Z_MSC_GDPS_DewPointDepression_IsbL-0700_LatLon0.15_PT228H.grib2 2026-04-30 16:38 1.1M
20260430T12Z_MSC_GDPS_DewPointDepression_IsbL-0750_LatLon0.15_PT228H.grib2 2026-04-30 16:38 1.1M
20260430T12Z_MSC_GDPS_DewPointDepression_IsbL-0800_LatLon0.15_PT228H.grib2 2026-04-30 16:38 1.2M
20260430T12Z_MSC_GDPS_DewPointDepression_IsbL-0850_LatLon0.15_PT228H.grib2 2026-04-30 16:38 1.2M
20260430T12Z_MSC_GDPS_DewPointDepression_IsbL-0875_LatLon0.15_PT228H.grib2 2026-04-30 16:38 1.1M
20260430T12Z_MSC_GDPS_DewPointDepression_IsbL-0900_LatLon0.15_PT228H.grib2 2026-04-30 16:38 1.1M
20260430T12Z_MSC_GDPS_DewPointDepression_IsbL-0925_LatLon0.15_PT228H.grib2 2026-04-30 16:38 1.0M
20260430T12Z_MSC_GDPS_DewPointDepression_IsbL-0950_LatLon0.15_PT228H.grib2 2026-04-30 16:38 1.0M
20260430T12Z_MSC_GDPS_DewPointDepression_IsbL-0970_LatLon0.15_PT228H.grib2 2026-04-30 16:38 1.0M
20260430T12Z_MSC_GDPS_DewPointDepression_IsbL-0985_LatLon0.15_PT228H.grib2 2026-04-30 16:38 1.0M
20260430T12Z_MSC_GDPS_DewPointDepression_IsbL-1000_LatLon0.15_PT228H.grib2 2026-04-30 16:38 972K
20260430T12Z_MSC_GDPS_DewPointDepression_IsbL-1015_LatLon0.15_PT228H.grib2 2026-04-30 16:38 914K
20260430T12Z_MSC_GDPS_DewPoint_AGL-2m_LatLon0.15_PT228H.grib2 2026-04-30 16:38 606K
20260430T12Z_MSC_GDPS_DownwardLongwaveRadiationFlux-Accum_Sfc_LatLon0.15_PT228H.grib2 2026-04-30 16:38 737K
20260430T12Z_MSC_GDPS_DownwardShortwaveRadiationFlux-Accum_NTAtm_LatLon0.15_PT228H.grib2 2026-04-30 16:38 272K
20260430T12Z_MSC_GDPS_DownwardShortwaveRadiationFlux-Accum_Sfc_LatLon0.15_PT228H.grib2 2026-04-30 16:38 908K
20260430T12Z_MSC_GDPS_FreezingRain-Accum12h_Sfc_LatLon0.15_PT228H.grib2 2026-04-30 16:38 76K
20260430T12Z_MSC_GDPS_FreezingRain-Accum24h_Sfc_LatLon0.15_PT228H.grib2 2026-04-30 16:38 105K
20260430T12Z_MSC_GDPS_FreezingRain-Accum6h_Sfc_LatLon0.15_PT228H.grib2 2026-04-30 16:38 45K
20260430T12Z_MSC_GDPS_FreezingRain-Accum_Sfc_LatLon0.15_PT228H.grib2 2026-04-30 16:38 462K
20260430T12Z_MSC_GDPS_GeopotentialHeight_IsbL-0001_LatLon0.15_PT228H.grib2 2026-04-30 16:38 430K
20260430T12Z_MSC_GDPS_GeopotentialHeight_IsbL-0005_LatLon0.15_PT228H.grib2 2026-04-30 16:38 486K
20260430T12Z_MSC_GDPS_GeopotentialHeight_IsbL-0010_LatLon0.15_PT228H.grib2 2026-04-30 16:38 477K
20260430T12Z_MSC_GDPS_GeopotentialHeight_IsbL-0020_LatLon0.15_PT228H.grib2 2026-04-30 16:38 462K
20260430T12Z_MSC_GDPS_GeopotentialHeight_IsbL-0030_LatLon0.15_PT228H.grib2 2026-04-30 16:38 417K
20260430T12Z_MSC_GDPS_GeopotentialHeight_IsbL-0050_LatLon0.15_PT228H.grib2 2026-04-30 16:38 570K
20260430T12Z_MSC_GDPS_GeopotentialHeight_IsbL-0100_LatLon0.15_PT228H.grib2 2026-04-30 16:38 610K
20260430T12Z_MSC_GDPS_GeopotentialHeight_IsbL-0150_LatLon0.15_PT228H.grib2 2026-04-30 16:38 630K
20260430T12Z_MSC_GDPS_GeopotentialHeight_IsbL-0175_LatLon0.15_PT228H.grib2 2026-04-30 16:38 634K
20260430T12Z_MSC_GDPS_GeopotentialHeight_IsbL-0200_LatLon0.15_PT228H.grib2 2026-04-30 16:38 639K
20260430T12Z_MSC_GDPS_GeopotentialHeight_IsbL-0225_LatLon0.15_PT228H.grib2 2026-04-30 16:38 636K
20260430T12Z_MSC_GDPS_GeopotentialHeight_IsbL-0250_LatLon0.15_PT228H.grib2 2026-04-30 16:38 640K
20260430T12Z_MSC_GDPS_GeopotentialHeight_IsbL-0275_LatLon0.15_PT228H.grib2 2026-04-30 16:38 643K
20260430T12Z_MSC_GDPS_GeopotentialHeight_IsbL-0300_LatLon0.15_PT228H.grib2 2026-04-30 16:38 635K
20260430T12Z_MSC_GDPS_GeopotentialHeight_IsbL-0350_LatLon0.15_PT228H.grib2 2026-04-30 16:38 630K
20260430T12Z_MSC_GDPS_GeopotentialHeight_IsbL-0400_LatLon0.15_PT228H.grib2 2026-04-30 16:38 622K
20260430T12Z_MSC_GDPS_GeopotentialHeight_IsbL-0450_LatLon0.15_PT228H.grib2 2026-04-30 16:38 612K
20260430T12Z_MSC_GDPS_GeopotentialHeight_IsbL-0500_LatLon0.15_PT228H.grib2 2026-04-30 16:38 602K
20260430T12Z_MSC_GDPS_GeopotentialHeight_IsbL-0550_LatLon0.15_PT228H.grib2 2026-04-30 16:38 525K
20260430T12Z_MSC_GDPS_GeopotentialHeight_IsbL-0600_LatLon0.15_PT228H.grib2 2026-04-30 16:38 522K
20260430T12Z_MSC_GDPS_GeopotentialHeight_IsbL-0650_LatLon0.15_PT228H.grib2 2026-04-30 16:38 520K
20260430T12Z_MSC_GDPS_GeopotentialHeight_IsbL-0700_LatLon0.15_PT228H.grib2 2026-04-30 16:38 689K
20260430T12Z_MSC_GDPS_GeopotentialHeight_IsbL-0750_LatLon0.15_PT228H.grib2 2026-04-30 16:38 689K
20260430T12Z_MSC_GDPS_GeopotentialHeight_IsbL-0800_LatLon0.15_PT228H.grib2 2026-04-30 16:38 703K
20260430T12Z_MSC_GDPS_GeopotentialHeight_IsbL-0850_LatLon0.15_PT228H.grib2 2026-04-30 16:38 710K
20260430T12Z_MSC_GDPS_GeopotentialHeight_IsbL-0875_LatLon0.15_PT228H.grib2 2026-04-30 16:38 718K
20260430T12Z_MSC_GDPS_GeopotentialHeight_IsbL-0900_LatLon0.15_PT228H.grib2 2026-04-30 16:38 726K
20260430T12Z_MSC_GDPS_GeopotentialHeight_IsbL-0925_LatLon0.15_PT228H.grib2 2026-04-30 16:38 730K
20260430T12Z_MSC_GDPS_GeopotentialHeight_IsbL-0950_LatLon0.15_PT228H.grib2 2026-04-30 16:38 740K
20260430T12Z_MSC_GDPS_GeopotentialHeight_IsbL-0970_LatLon0.15_PT228H.grib2 2026-04-30 16:38 750K
20260430T12Z_MSC_GDPS_GeopotentialHeight_IsbL-0985_LatLon0.15_PT228H.grib2 2026-04-30 16:38 765K
20260430T12Z_MSC_GDPS_GeopotentialHeight_IsbL-1000_LatLon0.15_PT228H.grib2 2026-04-30 16:38 785K
20260430T12Z_MSC_GDPS_GeopotentialHeight_IsbL-1015_LatLon0.15_PT228H.grib2 2026-04-30 16:38 808K
20260430T12Z_MSC_GDPS_Humidex_Sfc_LatLon0.15_PT228H.grib2 2026-04-30 16:38 5.3M
20260430T12Z_MSC_GDPS_IcePellets-Accum12h_Sfc_LatLon0.15_PT228H.grib2 2026-04-30 16:38 44K
20260430T12Z_MSC_GDPS_IcePellets-Accum24h_Sfc_LatLon0.15_PT228H.grib2 2026-04-30 16:38 57K
20260430T12Z_MSC_GDPS_IcePellets-Accum6h_Sfc_LatLon0.15_PT228H.grib2 2026-04-30 16:38 36K
20260430T12Z_MSC_GDPS_IcePellets-Accum_Sfc_LatLon0.15_PT228H.grib2 2026-04-30 16:38 186K
20260430T12Z_MSC_GDPS_KIndex_Sfc_LatLon0.15_PT228H.grib2 2026-04-30 16:38 6.5M
20260430T12Z_MSC_GDPS_LatentHeatNetFlux_Sfc_LatLon0.15_PT228H.grib2 2026-04-30 16:38 669K
20260430T12Z_MSC_GDPS_LiftedIndex-MU-VT_IsbL-0500_LatLon0.15_PT228H.grib2 2026-04-30 16:38 5.3M
20260430T12Z_MSC_GDPS_NetLongwaveRadiationFlux-Accum_Sfc_LatLon0.15_PT228H.grib2 2026-04-30 16:38 960K
20260430T12Z_MSC_GDPS_NetShortwaveRadiationFlux-Accum_Sfc_LatLon0.15_PT228H.grib2 2026-04-30 16:38 906K
20260430T12Z_MSC_GDPS_O3MixingRatio_Sfc_LatLon0.15_PT228H.grib2 2026-04-30 16:46 1.9M
20260430T12Z_MSC_GDPS_O3_EAtm_LatLon0.15_PT228H.grib2 2026-04-30 16:46 2.4M
20260430T12Z_MSC_GDPS_PlanetaryBoundaryLayerHeight_Sfc_LatLon0.15_PT228H.grib2 2026-04-30 16:38 2.4M
20260430T12Z_MSC_GDPS_Precip-Accum12h_Sfc_LatLon0.15_PT228H.grib2 2026-04-30 16:38 3.8M
20260430T12Z_MSC_GDPS_Precip-Accum24h_Sfc_LatLon0.15_PT228H.grib2 2026-04-30 16:38 4.3M
20260430T12Z_MSC_GDPS_Precip-Accum6h_Sfc_LatLon0.15_PT228H.grib2 2026-04-30 16:38 3.6M
20260430T12Z_MSC_GDPS_Precip-Accum_Sfc_LatLon0.15_PT228H.grib2 2026-04-30 16:38 5.5M
20260430T12Z_MSC_GDPS_PrecipRate_Sfc_LatLon0.15_PT228H.grib2 2026-04-30 16:38 3.1M
20260430T12Z_MSC_GDPS_PrecipType-Instant_Sfc_LatLon0.15_PT228H.grib2 2026-04-30 16:38 1.6M
20260430T12Z_MSC_GDPS_Pressure_MSL_LatLon0.15_PT228H.grib2 2026-04-30 16:38 722K
20260430T12Z_MSC_GDPS_Pressure_PVU-1.5_LatLon0.15_PT228H.grib2 2026-04-30 16:38 5.8M
20260430T12Z_MSC_GDPS_Pressure_PVU-1_LatLon0.15_PT228H.grib2 2026-04-30 16:38 6.0M
20260430T12Z_MSC_GDPS_Pressure_PVU-2_LatLon0.15_PT228H.grib2 2026-04-30 16:38 5.6M
20260430T12Z_MSC_GDPS_Pressure_Sfc_LatLon0.15_PT228H.grib2 2026-04-30 16:38 1.1M
20260430T12Z_MSC_GDPS_RadiativeTemp_Sfc_LatLon0.15_PT228H.grib2 2026-04-30 16:38 662K
20260430T12Z_MSC_GDPS_Rain-Accum12h_Sfc_LatLon0.15_PT228H.grib2 2026-04-30 16:38 2.5M
20260430T12Z_MSC_GDPS_Rain-Accum24h_Sfc_LatLon0.15_PT228H.grib2 2026-04-30 16:38 3.0M
20260430T12Z_MSC_GDPS_Rain-Accum6h_Sfc_LatLon0.15_PT228H.grib2 2026-04-30 16:38 2.2M
20260430T12Z_MSC_GDPS_Rain-Accum_Sfc_LatLon0.15_PT228H.grib2 2026-04-30 16:38 4.3M
20260430T12Z_MSC_GDPS_RelativeHumidity_AGL-2m_LatLon0.15_PT228H.grib2 2026-04-30 16:38 1.0M
20260430T12Z_MSC_GDPS_RelativeHumidity_IsbL-0010_LatLon0.15_PT228H.grib2 2026-04-30 16:38 73K
20260430T12Z_MSC_GDPS_RelativeHumidity_IsbL-0020_LatLon0.15_PT228H.grib2 2026-04-30 16:38 107K
20260430T12Z_MSC_GDPS_RelativeHumidity_IsbL-0030_LatLon0.15_PT228H.grib2 2026-04-30 16:38 183K
20260430T12Z_MSC_GDPS_RelativeHumidity_IsbL-0050_LatLon0.15_PT228H.grib2 2026-04-30 16:38 333K
20260430T12Z_MSC_GDPS_RelativeHumidity_IsbL-0100_LatLon0.15_PT228H.grib2 2026-04-30 16:38 496K
20260430T12Z_MSC_GDPS_RelativeHumidity_IsbL-0150_LatLon0.15_PT228H.grib2 2026-04-30 16:38 681K
20260430T12Z_MSC_GDPS_RelativeHumidity_IsbL-0175_LatLon0.15_PT228H.grib2 2026-04-30 16:38 787K
20260430T12Z_MSC_GDPS_RelativeHumidity_IsbL-0200_LatLon0.15_PT228H.grib2 2026-04-30 16:38 704K
20260430T12Z_MSC_GDPS_RelativeHumidity_IsbL-0225_LatLon0.15_PT228H.grib2 2026-04-30 16:38 791K
20260430T12Z_MSC_GDPS_RelativeHumidity_IsbL-0250_LatLon0.15_PT228H.grib2 2026-04-30 16:38 868K
20260430T12Z_MSC_GDPS_RelativeHumidity_IsbL-0275_LatLon0.15_PT228H.grib2 2026-04-30 16:38 891K
20260430T12Z_MSC_GDPS_RelativeHumidity_IsbL-0300_LatLon0.15_PT228H.grib2 2026-04-30 16:38 930K
20260430T12Z_MSC_GDPS_RelativeHumidity_IsbL-0350_LatLon0.15_PT228H.grib2 2026-04-30 16:38 948K
20260430T12Z_MSC_GDPS_RelativeHumidity_IsbL-0400_LatLon0.15_PT228H.grib2 2026-04-30 16:38 971K
20260430T12Z_MSC_GDPS_RelativeHumidity_IsbL-0450_LatLon0.15_PT228H.grib2 2026-04-30 16:38 1.0M
20260430T12Z_MSC_GDPS_RelativeHumidity_IsbL-0500_LatLon0.15_PT228H.grib2 2026-04-30 16:38 1.0M
20260430T12Z_MSC_GDPS_RelativeHumidity_IsbL-0550_LatLon0.15_PT228H.grib2 2026-04-30 16:38 1.0M
20260430T12Z_MSC_GDPS_RelativeHumidity_IsbL-0600_LatLon0.15_PT228H.grib2 2026-04-30 16:38 1.0M
20260430T12Z_MSC_GDPS_RelativeHumidity_IsbL-0650_LatLon0.15_PT228H.grib2 2026-04-30 16:38 1.1M
20260430T12Z_MSC_GDPS_RelativeHumidity_IsbL-0700_LatLon0.15_PT228H.grib2 2026-04-30 16:38 1.1M
20260430T12Z_MSC_GDPS_RelativeHumidity_IsbL-0750_LatLon0.15_PT228H.grib2 2026-04-30 16:38 1.2M
20260430T12Z_MSC_GDPS_RelativeHumidity_IsbL-0800_LatLon0.15_PT228H.grib2 2026-04-30 16:38 1.2M
20260430T12Z_MSC_GDPS_RelativeHumidity_IsbL-0850_LatLon0.15_PT228H.grib2 2026-04-30 16:38 1.3M
20260430T12Z_MSC_GDPS_RelativeHumidity_IsbL-0875_LatLon0.15_PT228H.grib2 2026-04-30 16:38 1.3M
20260430T12Z_MSC_GDPS_RelativeHumidity_IsbL-0900_LatLon0.15_PT228H.grib2 2026-04-30 16:38 1.2M
20260430T12Z_MSC_GDPS_RelativeHumidity_IsbL-0925_LatLon0.15_PT228H.grib2 2026-04-30 16:38 1.2M
20260430T12Z_MSC_GDPS_RelativeHumidity_IsbL-0950_LatLon0.15_PT228H.grib2 2026-04-30 16:38 1.2M
20260430T12Z_MSC_GDPS_RelativeHumidity_IsbL-0970_LatLon0.15_PT228H.grib2 2026-04-30 16:38 1.2M
20260430T12Z_MSC_GDPS_RelativeHumidity_IsbL-0985_LatLon0.15_PT228H.grib2 2026-04-30 16:38 1.1M
20260430T12Z_MSC_GDPS_RelativeHumidity_IsbL-1000_LatLon0.15_PT228H.grib2 2026-04-30 16:38 1.1M
20260430T12Z_MSC_GDPS_RelativeHumidity_IsbL-1015_LatLon0.15_PT228H.grib2 2026-04-30 16:38 1.0M
20260430T12Z_MSC_GDPS_RelativeVorticity_IsbL-0200_LatLon0.15_PT228H.grib2 2026-04-30 16:38 1.2M
20260430T12Z_MSC_GDPS_RelativeVorticity_IsbL-0250_LatLon0.15_PT228H.grib2 2026-04-30 16:38 1.3M
20260430T12Z_MSC_GDPS_RelativeVorticity_IsbL-0500_LatLon0.15_PT228H.grib2 2026-04-30 16:38 1.2M
20260430T12Z_MSC_GDPS_RelativeVorticity_IsbL-0700_LatLon0.15_PT228H.grib2 2026-04-30 16:38 1.3M
20260430T12Z_MSC_GDPS_RelativeVorticity_IsbL-0850_LatLon0.15_PT228H.grib2 2026-04-30 16:38 1.6M
20260430T12Z_MSC_GDPS_Runoff-Accum_Sfc_LatLon0.15_PT228H.grib2 2026-04-30 16:38 139K
20260430T12Z_MSC_GDPS_SensibleHeatNetFlux_Sfc_LatLon0.15_PT228H.grib2 2026-04-30 16:38 448K
20260430T12Z_MSC_GDPS_ShowalterIndex_IsbL-0500_LatLon0.15_PT228H.grib2 2026-04-30 16:38 6.2M
20260430T12Z_MSC_GDPS_Snow-Accum12h_Sfc_LatLon0.15_PT228H.grib2 2026-04-30 16:38 1.4M
20260430T12Z_MSC_GDPS_Snow-Accum24h_Sfc_LatLon0.15_PT228H.grib2 2026-04-30 16:38 1.4M
20260430T12Z_MSC_GDPS_Snow-Accum6h_Sfc_LatLon0.15_PT228H.grib2 2026-04-30 16:38 1.2M
20260430T12Z_MSC_GDPS_Snow-Accum_Sfc_LatLon0.15_PT228H.grib2 2026-04-30 16:38 2.2M
20260430T12Z_MSC_GDPS_SnowDensity_Sfc_LatLon0.15_PT228H.grib2 2026-04-30 16:38 257K
20260430T12Z_MSC_GDPS_SnowDepth_Sfc_LatLon0.15_PT228H.grib2 2026-04-30 16:38 1.7M
20260430T12Z_MSC_GDPS_SoilTemp_DBS-0to10cm_LatLon0.15_PT228H.grib2 2026-04-30 16:38 516K
20260430T12Z_MSC_GDPS_SoilTemp_Sfc_LatLon0.15_PT228H.grib2 2026-04-30 16:38 579K
20260430T12Z_MSC_GDPS_SoilVolumetricIceContent_Sfc_LatLon0.15_PT228H.grib2 2026-04-30 16:38 178K
20260430T12Z_MSC_GDPS_SoilVolumetricWaterContent_DBS-0to10cm_LatLon0.15_PT228H.grib2 2026-04-30 16:38 596K
20260430T12Z_MSC_GDPS_SoilVolumetricWaterContent_DBS-0to1cm_LatLon0.15_PT228H.grib2 2026-04-30 16:38 649K
20260430T12Z_MSC_GDPS_SpecificHumidity_AGL-120m_LatLon0.15_PT228H.grib2 2026-04-30 16:38 1.1M
20260430T12Z_MSC_GDPS_SpecificHumidity_AGL-2m_LatLon0.15_PT228H.grib2 2026-04-30 16:38 1.2M
20260430T12Z_MSC_GDPS_SpecificHumidity_AGL-40m_LatLon0.15_PT228H.grib2 2026-04-30 16:38 1.1M
20260430T12Z_MSC_GDPS_SpecificHumidity_AGL-80m_LatLon0.15_PT228H.grib2 2026-04-30 16:38 1.1M
20260430T12Z_MSC_GDPS_SpecificHumidity_IsbL-0001_LatLon0.15_PT228H.grib2 2026-04-30 16:38 1.1M
20260430T12Z_MSC_GDPS_SpecificHumidity_IsbL-0005_LatLon0.15_PT228H.grib2 2026-04-30 16:38 1.0M
20260430T12Z_MSC_GDPS_SpecificHumidity_IsbL-0010_LatLon0.15_PT228H.grib2 2026-04-30 16:38 1.1M
20260430T12Z_MSC_GDPS_SpecificHumidity_IsbL-0020_LatLon0.15_PT228H.grib2 2026-04-30 16:38 1.1M
20260430T12Z_MSC_GDPS_SpecificHumidity_IsbL-0030_LatLon0.15_PT228H.grib2 2026-04-30 16:38 1.4M
20260430T12Z_MSC_GDPS_SpecificHumidity_IsbL-0050_LatLon0.15_PT228H.grib2 2026-04-30 16:38 1.4M
20260430T12Z_MSC_GDPS_SpecificHumidity_IsbL-0100_LatLon0.15_PT228H.grib2 2026-04-30 16:38 1.2M
20260430T12Z_MSC_GDPS_SpecificHumidity_IsbL-0150_LatLon0.15_PT228H.grib2 2026-04-30 16:38 1.3M
20260430T12Z_MSC_GDPS_SpecificHumidity_IsbL-0175_LatLon0.15_PT228H.grib2 2026-04-30 16:38 1.3M
20260430T12Z_MSC_GDPS_SpecificHumidity_IsbL-0200_LatLon0.15_PT228H.grib2 2026-04-30 16:38 1.3M
20260430T12Z_MSC_GDPS_SpecificHumidity_IsbL-0225_LatLon0.15_PT228H.grib2 2026-04-30 16:38 1.3M
20260430T12Z_MSC_GDPS_SpecificHumidity_IsbL-0250_LatLon0.15_PT228H.grib2 2026-04-30 16:38 1.2M
20260430T12Z_MSC_GDPS_SpecificHumidity_IsbL-0275_LatLon0.15_PT228H.grib2 2026-04-30 16:38 1.4M
20260430T12Z_MSC_GDPS_SpecificHumidity_IsbL-0300_LatLon0.15_PT228H.grib2 2026-04-30 16:38 1.2M
20260430T12Z_MSC_GDPS_SpecificHumidity_IsbL-0350_LatLon0.15_PT228H.grib2 2026-04-30 16:38 1.2M
20260430T12Z_MSC_GDPS_SpecificHumidity_IsbL-0400_LatLon0.15_PT228H.grib2 2026-04-30 16:38 1.4M
20260430T12Z_MSC_GDPS_SpecificHumidity_IsbL-0450_LatLon0.15_PT228H.grib2 2026-04-30 16:38 1.3M
20260430T12Z_MSC_GDPS_SpecificHumidity_IsbL-0500_LatLon0.15_PT228H.grib2 2026-04-30 16:38 1.4M
20260430T12Z_MSC_GDPS_SpecificHumidity_IsbL-0550_LatLon0.15_PT228H.grib2 2026-04-30 16:38 1.6M
20260430T12Z_MSC_GDPS_SpecificHumidity_IsbL-0600_LatLon0.15_PT228H.grib2 2026-04-30 16:38 1.4M
20260430T12Z_MSC_GDPS_SpecificHumidity_IsbL-0650_LatLon0.15_PT228H.grib2 2026-04-30 16:38 1.5M
20260430T12Z_MSC_GDPS_SpecificHumidity_IsbL-0700_LatLon0.15_PT228H.grib2 2026-04-30 16:38 1.6M
20260430T12Z_MSC_GDPS_SpecificHumidity_IsbL-0750_LatLon0.15_PT228H.grib2 2026-04-30 16:38 1.7M
20260430T12Z_MSC_GDPS_SpecificHumidity_IsbL-0800_LatLon0.15_PT228H.grib2 2026-04-30 16:38 1.9M
20260430T12Z_MSC_GDPS_SpecificHumidity_IsbL-0850_LatLon0.15_PT228H.grib2 2026-04-30 16:38 2.0M
20260430T12Z_MSC_GDPS_SpecificHumidity_IsbL-0875_LatLon0.15_PT228H.grib2 2026-04-30 16:38 2.0M
20260430T12Z_MSC_GDPS_SpecificHumidity_IsbL-0900_LatLon0.15_PT228H.grib2 2026-04-30 16:38 1.9M
20260430T12Z_MSC_GDPS_SpecificHumidity_IsbL-0925_LatLon0.15_PT228H.grib2 2026-04-30 16:38 1.6M
20260430T12Z_MSC_GDPS_SpecificHumidity_IsbL-0950_LatLon0.15_PT228H.grib2 2026-04-30 16:38 1.6M
20260430T12Z_MSC_GDPS_SpecificHumidity_IsbL-0970_LatLon0.15_PT228H.grib2 2026-04-30 16:38 1.6M
20260430T12Z_MSC_GDPS_SpecificHumidity_IsbL-0985_LatLon0.15_PT228H.grib2 2026-04-30 16:38 1.5M
20260430T12Z_MSC_GDPS_SpecificHumidity_IsbL-1000_LatLon0.15_PT228H.grib2 2026-04-30 16:38 1.5M
20260430T12Z_MSC_GDPS_SpecificHumidity_IsbL-1015_LatLon0.15_PT228H.grib2 2026-04-30 16:38 1.5M
20260430T12Z_MSC_GDPS_SpecificHumidity_Sfc_LatLon0.15_PT228H.grib2 2026-04-30 16:38 644K
20260430T12Z_MSC_GDPS_Thickness_IsbL-0850to0700_LatLon0.15_PT228H.grib2 2026-04-30 16:38 467K
20260430T12Z_MSC_GDPS_Thickness_IsbL-1000to0500_LatLon0.15_PT228H.grib2 2026-04-30 16:38 370K
20260430T12Z_MSC_GDPS_Thickness_IsbL-1000to0850_LatLon0.15_PT228H.grib2 2026-04-30 16:38 489K
20260430T12Z_MSC_GDPS_TotalCloudCover_Sfc_LatLon0.15_PT228H.grib2 2026-04-30 16:38 845K
20260430T12Z_MSC_GDPS_TotalTotalsIndex_Sfc_LatLon0.15_PT228H.grib2 2026-04-30 16:38 6.2M
20260430T12Z_MSC_GDPS_UVIndex-ClearSky_Sfc_LatLon0.15_PT228H.grib2 2026-04-30 16:46 1.0M
20260430T12Z_MSC_GDPS_UVIndex_Sfc_LatLon0.15_PT228H.grib2 2026-04-30 16:46 1.5M
20260430T12Z_MSC_GDPS_UpwardLongwaveRadiationFlux_NTAtm_LatLon0.15_PT228H.grib2 2026-04-30 16:38 833K
20260430T12Z_MSC_GDPS_VerticalVelocity_IsbL-0200_LatLon0.15_PT228H.grib2 2026-04-30 16:38 933K
20260430T12Z_MSC_GDPS_VerticalVelocity_IsbL-0250_LatLon0.15_PT228H.grib2 2026-04-30 16:38 1.1M
20260430T12Z_MSC_GDPS_VerticalVelocity_IsbL-0500_LatLon0.15_PT228H.grib2 2026-04-30 16:38 1.0M
20260430T12Z_MSC_GDPS_VerticalVelocity_IsbL-0600_LatLon0.15_PT228H.grib2 2026-04-30 16:38 1.0M
20260430T12Z_MSC_GDPS_VerticalVelocity_IsbL-0700_LatLon0.15_PT228H.grib2 2026-04-30 16:38 1.4M
20260430T12Z_MSC_GDPS_VerticalVelocity_IsbL-0850_LatLon0.15_PT228H.grib2 2026-04-30 16:38 1.6M
20260430T12Z_MSC_GDPS_WindChill_Sfc_LatLon0.15_PT228H.grib2 2026-04-30 16:38 5.3M
20260430T12Z_MSC_GDPS_WindDir_AGL-10m_LatLon0.15_PT228H.grib2 2026-04-30 16:38 1.3M
20260430T12Z_MSC_GDPS_WindDir_AGL-120m_LatLon0.15_PT228H.grib2 2026-04-30 16:38 1.3M
20260430T12Z_MSC_GDPS_WindDir_AGL-40m_LatLon0.15_PT228H.grib2 2026-04-30 16:38 1.4M
20260430T12Z_MSC_GDPS_WindDir_AGL-80m_LatLon0.15_PT228H.grib2 2026-04-30 16:38 1.4M
20260430T12Z_MSC_GDPS_WindDir_IsbL-0001_LatLon0.15_PT228H.grib2 2026-04-30 16:38 657K
20260430T12Z_MSC_GDPS_WindDir_IsbL-0005_LatLon0.15_PT228H.grib2 2026-04-30 16:38 799K
20260430T12Z_MSC_GDPS_WindDir_IsbL-0010_LatLon0.15_PT228H.grib2 2026-04-30 16:38 830K
20260430T12Z_MSC_GDPS_WindDir_IsbL-0020_LatLon0.15_PT228H.grib2 2026-04-30 16:38 939K
20260430T12Z_MSC_GDPS_WindDir_IsbL-0030_LatLon0.15_PT228H.grib2 2026-04-30 16:38 936K
20260430T12Z_MSC_GDPS_WindDir_IsbL-0050_LatLon0.15_PT228H.grib2 2026-04-30 16:38 962K
20260430T12Z_MSC_GDPS_WindDir_IsbL-0100_LatLon0.15_PT228H.grib2 2026-04-30 16:38 1.0M
20260430T12Z_MSC_GDPS_WindDir_IsbL-0150_LatLon0.15_PT228H.grib2 2026-04-30 16:38 1.0M
20260430T12Z_MSC_GDPS_WindDir_IsbL-0175_LatLon0.15_PT228H.grib2 2026-04-30 16:38 1.0M
20260430T12Z_MSC_GDPS_WindDir_IsbL-0200_LatLon0.15_PT228H.grib2 2026-04-30 16:38 1.1M
20260430T12Z_MSC_GDPS_WindDir_IsbL-0225_LatLon0.15_PT228H.grib2 2026-04-30 16:38 1.1M
20260430T12Z_MSC_GDPS_WindDir_IsbL-0250_LatLon0.15_PT228H.grib2 2026-04-30 16:38 1.1M
20260430T12Z_MSC_GDPS_WindDir_IsbL-0275_LatLon0.15_PT228H.grib2 2026-04-30 16:38 1.2M
20260430T12Z_MSC_GDPS_WindDir_IsbL-0300_LatLon0.15_PT228H.grib2 2026-04-30 16:38 1.2M
20260430T12Z_MSC_GDPS_WindDir_IsbL-0350_LatLon0.15_PT228H.grib2 2026-04-30 16:38 1.2M
20260430T12Z_MSC_GDPS_WindDir_IsbL-0400_LatLon0.15_PT228H.grib2 2026-04-30 16:38 1.3M
20260430T12Z_MSC_GDPS_WindDir_IsbL-0450_LatLon0.15_PT228H.grib2 2026-04-30 16:38 1.3M
20260430T12Z_MSC_GDPS_WindDir_IsbL-0500_LatLon0.15_PT228H.grib2 2026-04-30 16:38 1.4M
20260430T12Z_MSC_GDPS_WindDir_IsbL-0550_LatLon0.15_PT228H.grib2 2026-04-30 16:38 1.4M
20260430T12Z_MSC_GDPS_WindDir_IsbL-0600_LatLon0.15_PT228H.grib2 2026-04-30 16:38 1.5M
20260430T12Z_MSC_GDPS_WindDir_IsbL-0650_LatLon0.15_PT228H.grib2 2026-04-30 16:38 1.5M
20260430T12Z_MSC_GDPS_WindDir_IsbL-0700_LatLon0.15_PT228H.grib2 2026-04-30 16:38 1.6M
20260430T12Z_MSC_GDPS_WindDir_IsbL-0750_LatLon0.15_PT228H.grib2 2026-04-30 16:38 1.7M
20260430T12Z_MSC_GDPS_WindDir_IsbL-0800_LatLon0.15_PT228H.grib2 2026-04-30 16:38 1.8M
20260430T12Z_MSC_GDPS_WindDir_IsbL-0850_LatLon0.15_PT228H.grib2 2026-04-30 16:38 1.9M
20260430T12Z_MSC_GDPS_WindDir_IsbL-0875_LatLon0.15_PT228H.grib2 2026-04-30 16:38 1.9M
20260430T12Z_MSC_GDPS_WindDir_IsbL-0900_LatLon0.15_PT228H.grib2 2026-04-30 16:38 2.0M
20260430T12Z_MSC_GDPS_WindDir_IsbL-0925_LatLon0.15_PT228H.grib2 2026-04-30 16:38 2.0M
20260430T12Z_MSC_GDPS_WindDir_IsbL-0950_LatLon0.15_PT228H.grib2 2026-04-30 16:38 2.0M
20260430T12Z_MSC_GDPS_WindDir_IsbL-0970_LatLon0.15_PT228H.grib2 2026-04-30 16:38 2.0M
20260430T12Z_MSC_GDPS_WindDir_IsbL-0985_LatLon0.15_PT228H.grib2 2026-04-30 16:38 2.0M
20260430T12Z_MSC_GDPS_WindDir_IsbL-1000_LatLon0.15_PT228H.grib2 2026-04-30 16:38 2.1M
20260430T12Z_MSC_GDPS_WindDir_IsbL-1015_LatLon0.15_PT228H.grib2 2026-04-30 16:38 2.0M
20260430T12Z_MSC_GDPS_WindGust-Max_AGL-10m_LatLon0.15_PT228H.grib2 2026-04-30 16:38 2.2M
20260430T12Z_MSC_GDPS_WindGust-Min_AGL-10m_LatLon0.15_PT228H.grib2 2026-04-30 16:38 2.2M
20260430T12Z_MSC_GDPS_WindGust_AGL-10m_LatLon0.15_PT228H.grib2 2026-04-30 16:38 2.2M
20260430T12Z_MSC_GDPS_WindSpeed_AGL-10m_LatLon0.15_PT228H.grib2 2026-04-30 16:38 1.1M
20260430T12Z_MSC_GDPS_WindSpeed_AGL-120m_LatLon0.15_PT228H.grib2 2026-04-30 16:38 1.2M
20260430T12Z_MSC_GDPS_WindSpeed_AGL-40m_LatLon0.15_PT228H.grib2 2026-04-30 16:38 1.2M
20260430T12Z_MSC_GDPS_WindSpeed_AGL-80m_LatLon0.15_PT228H.grib2 2026-04-30 16:38 1.2M
20260430T12Z_MSC_GDPS_WindSpeed_IsbL-0001_LatLon0.15_PT228H.grib2 2026-04-30 16:38 653K
20260430T12Z_MSC_GDPS_WindSpeed_IsbL-0005_LatLon0.15_PT228H.grib2 2026-04-30 16:38 694K
20260430T12Z_MSC_GDPS_WindSpeed_IsbL-0010_LatLon0.15_PT228H.grib2 2026-04-30 16:38 626K
20260430T12Z_MSC_GDPS_WindSpeed_IsbL-0020_LatLon0.15_PT228H.grib2 2026-04-30 16:38 660K
20260430T12Z_MSC_GDPS_WindSpeed_IsbL-0030_LatLon0.15_PT228H.grib2 2026-04-30 16:38 860K
20260430T12Z_MSC_GDPS_WindSpeed_IsbL-0050_LatLon0.15_PT228H.grib2 2026-04-30 16:38 897K
20260430T12Z_MSC_GDPS_WindSpeed_IsbL-0100_LatLon0.15_PT228H.grib2 2026-04-30 16:38 1.1M
20260430T12Z_MSC_GDPS_WindSpeed_IsbL-0150_LatLon0.15_PT228H.grib2 2026-04-30 16:38 1.0M
20260430T12Z_MSC_GDPS_WindSpeed_IsbL-0175_LatLon0.15_PT228H.grib2 2026-04-30 16:38 1.0M
20260430T12Z_MSC_GDPS_WindSpeed_IsbL-0200_LatLon0.15_PT228H.grib2 2026-04-30 16:38 1.0M
20260430T12Z_MSC_GDPS_WindSpeed_IsbL-0225_LatLon0.15_PT228H.grib2 2026-04-30 16:38 1.1M
20260430T12Z_MSC_GDPS_WindSpeed_IsbL-0250_LatLon0.15_PT228H.grib2 2026-04-30 16:38 1.1M
20260430T12Z_MSC_GDPS_WindSpeed_IsbL-0275_LatLon0.15_PT228H.grib2 2026-04-30 16:38 1.1M
20260430T12Z_MSC_GDPS_WindSpeed_IsbL-0300_LatLon0.15_PT228H.grib2 2026-04-30 16:38 1.1M
20260430T12Z_MSC_GDPS_WindSpeed_IsbL-0350_LatLon0.15_PT228H.grib2 2026-04-30 16:38 1.1M
20260430T12Z_MSC_GDPS_WindSpeed_IsbL-0400_LatLon0.15_PT228H.grib2 2026-04-30 16:38 1.1M
20260430T12Z_MSC_GDPS_WindSpeed_IsbL-0450_LatLon0.15_PT228H.grib2 2026-04-30 16:38 1.1M
20260430T12Z_MSC_GDPS_WindSpeed_IsbL-0500_LatLon0.15_PT228H.grib2 2026-04-30 16:38 1.1M
20260430T12Z_MSC_GDPS_WindSpeed_IsbL-0550_LatLon0.15_PT228H.grib2 2026-04-30 16:38 1.1M
20260430T12Z_MSC_GDPS_WindSpeed_IsbL-0600_LatLon0.15_PT228H.grib2 2026-04-30 16:38 1.4M
20260430T12Z_MSC_GDPS_WindSpeed_IsbL-0650_LatLon0.15_PT228H.grib2 2026-04-30 16:38 1.4M
20260430T12Z_MSC_GDPS_WindSpeed_IsbL-0700_LatLon0.15_PT228H.grib2 2026-04-30 16:38 1.5M
20260430T12Z_MSC_GDPS_WindSpeed_IsbL-0750_LatLon0.15_PT228H.grib2 2026-04-30 16:38 1.6M
20260430T12Z_MSC_GDPS_WindSpeed_IsbL-0800_LatLon0.15_PT228H.grib2 2026-04-30 16:38 1.6M
20260430T12Z_MSC_GDPS_WindSpeed_IsbL-0850_LatLon0.15_PT228H.grib2 2026-04-30 16:38 1.7M
20260430T12Z_MSC_GDPS_WindSpeed_IsbL-0875_LatLon0.15_PT228H.grib2 2026-04-30 16:38 1.8M
20260430T12Z_MSC_GDPS_WindSpeed_IsbL-0900_LatLon0.15_PT228H.grib2 2026-04-30 16:38 1.8M
20260430T12Z_MSC_GDPS_WindSpeed_IsbL-0925_LatLon0.15_PT228H.grib2 2026-04-30 16:38 1.8M
20260430T12Z_MSC_GDPS_WindSpeed_IsbL-0950_LatLon0.15_PT228H.grib2 2026-04-30 16:38 1.9M
20260430T12Z_MSC_GDPS_WindSpeed_IsbL-0970_LatLon0.15_PT228H.grib2 2026-04-30 16:38 1.9M
20260430T12Z_MSC_GDPS_WindSpeed_IsbL-0985_LatLon0.15_PT228H.grib2 2026-04-30 16:38 1.9M
20260430T12Z_MSC_GDPS_WindSpeed_IsbL-1000_LatLon0.15_PT228H.grib2 2026-04-30 16:38 1.8M
20260430T12Z_MSC_GDPS_WindSpeed_IsbL-1015_LatLon0.15_PT228H.grib2 2026-04-30 16:38 1.8M
20260430T12Z_MSC_GDPS_WindU_AGL-10m_LatLon0.15_PT228H.grib2 2026-04-30 16:38 1.3M
20260430T12Z_MSC_GDPS_WindU_AGL-120m_LatLon0.15_PT228H.grib2 2026-04-30 16:38 1.0M
20260430T12Z_MSC_GDPS_WindU_AGL-40m_LatLon0.15_PT228H.grib2 2026-04-30 16:38 969K
20260430T12Z_MSC_GDPS_WindU_AGL-80m_LatLon0.15_PT228H.grib2 2026-04-30 16:38 1.0M
20260430T12Z_MSC_GDPS_WindU_IsbL-0001_LatLon0.15_PT228H.grib2 2026-04-30 16:38 509K
20260430T12Z_MSC_GDPS_WindU_IsbL-0005_LatLon0.15_PT228H.grib2 2026-04-30 16:38 693K
20260430T12Z_MSC_GDPS_WindU_IsbL-0010_LatLon0.15_PT228H.grib2 2026-04-30 16:38 701K
20260430T12Z_MSC_GDPS_WindU_IsbL-0020_LatLon0.15_PT228H.grib2 2026-04-30 16:38 726K
20260430T12Z_MSC_GDPS_WindU_IsbL-0030_LatLon0.15_PT228H.grib2 2026-04-30 16:38 735K
20260430T12Z_MSC_GDPS_WindU_IsbL-0050_LatLon0.15_PT228H.grib2 2026-04-30 16:38 760K
20260430T12Z_MSC_GDPS_WindU_IsbL-0100_LatLon0.15_PT228H.grib2 2026-04-30 16:38 861K
20260430T12Z_MSC_GDPS_WindU_IsbL-0150_LatLon0.15_PT228H.grib2 2026-04-30 16:38 1.0M
20260430T12Z_MSC_GDPS_WindU_IsbL-0175_LatLon0.15_PT228H.grib2 2026-04-30 16:38 1.0M
20260430T12Z_MSC_GDPS_WindU_IsbL-0200_LatLon0.15_PT228H.grib2 2026-04-30 16:38 833K
20260430T12Z_MSC_GDPS_WindU_IsbL-0225_LatLon0.15_PT228H.grib2 2026-04-30 16:38 844K
20260430T12Z_MSC_GDPS_WindU_IsbL-0250_LatLon0.15_PT228H.grib2 2026-04-30 16:38 849K
20260430T12Z_MSC_GDPS_WindU_IsbL-0275_LatLon0.15_PT228H.grib2 2026-04-30 16:38 878K
20260430T12Z_MSC_GDPS_WindU_IsbL-0300_LatLon0.15_PT228H.grib2 2026-04-30 16:38 871K
20260430T12Z_MSC_GDPS_WindU_IsbL-0350_LatLon0.15_PT228H.grib2 2026-04-30 16:38 887K
20260430T12Z_MSC_GDPS_WindU_IsbL-0400_LatLon0.15_PT228H.grib2 2026-04-30 16:38 1.1M
20260430T12Z_MSC_GDPS_WindU_IsbL-0450_LatLon0.15_PT228H.grib2 2026-04-30 16:38 1.1M
20260430T12Z_MSC_GDPS_WindU_IsbL-0500_LatLon0.15_PT228H.grib2 2026-04-30 16:38 1.1M
20260430T12Z_MSC_GDPS_WindU_IsbL-0550_LatLon0.15_PT228H.grib2 2026-04-30 16:38 1.1M
20260430T12Z_MSC_GDPS_WindU_IsbL-0600_LatLon0.15_PT228H.grib2 2026-04-30 16:38 1.1M
20260430T12Z_MSC_GDPS_WindU_IsbL-0650_LatLon0.15_PT228H.grib2 2026-04-30 16:38 1.2M
20260430T12Z_MSC_GDPS_WindU_IsbL-0700_LatLon0.15_PT228H.grib2 2026-04-30 16:38 1.2M
20260430T12Z_MSC_GDPS_WindU_IsbL-0750_LatLon0.15_PT228H.grib2 2026-04-30 16:38 1.3M
20260430T12Z_MSC_GDPS_WindU_IsbL-0800_LatLon0.15_PT228H.grib2 2026-04-30 16:38 1.3M
20260430T12Z_MSC_GDPS_WindU_IsbL-0850_LatLon0.15_PT228H.grib2 2026-04-30 16:38 1.4M
20260430T12Z_MSC_GDPS_WindU_IsbL-0875_LatLon0.15_PT228H.grib2 2026-04-30 16:38 1.5M
20260430T12Z_MSC_GDPS_WindU_IsbL-0900_LatLon0.15_PT228H.grib2 2026-04-30 16:38 1.5M
20260430T12Z_MSC_GDPS_WindU_IsbL-0925_LatLon0.15_PT228H.grib2 2026-04-30 16:38 1.5M
20260430T12Z_MSC_GDPS_WindU_IsbL-0950_LatLon0.15_PT228H.grib2 2026-04-30 16:38 1.4M
20260430T12Z_MSC_GDPS_WindU_IsbL-0970_LatLon0.15_PT228H.grib2 2026-04-30 16:38 1.4M
20260430T12Z_MSC_GDPS_WindU_IsbL-0985_LatLon0.15_PT228H.grib2 2026-04-30 16:38 1.4M
20260430T12Z_MSC_GDPS_WindU_IsbL-1000_LatLon0.15_PT228H.grib2 2026-04-30 16:38 1.4M
20260430T12Z_MSC_GDPS_WindU_IsbL-1015_LatLon0.15_PT228H.grib2 2026-04-30 16:38 1.3M
20260430T12Z_MSC_GDPS_WindV_AGL-10m_LatLon0.15_PT228H.grib2 2026-04-30 16:38 1.3M
20260430T12Z_MSC_GDPS_WindV_AGL-120m_LatLon0.15_PT228H.grib2 2026-04-30 16:38 1.0M
20260430T12Z_MSC_GDPS_WindV_AGL-40m_LatLon0.15_PT228H.grib2 2026-04-30 16:38 970K
20260430T12Z_MSC_GDPS_WindV_AGL-80m_LatLon0.15_PT228H.grib2 2026-04-30 16:38 1.0M
20260430T12Z_MSC_GDPS_WindV_IsbL-0001_LatLon0.15_PT228H.grib2 2026-04-30 16:38 691K
20260430T12Z_MSC_GDPS_WindV_IsbL-0005_LatLon0.15_PT228H.grib2 2026-04-30 16:38 773K
20260430T12Z_MSC_GDPS_WindV_IsbL-0010_LatLon0.15_PT228H.grib2 2026-04-30 16:38 797K
20260430T12Z_MSC_GDPS_WindV_IsbL-0020_LatLon0.15_PT228H.grib2 2026-04-30 16:38 845K
20260430T12Z_MSC_GDPS_WindV_IsbL-0030_LatLon0.15_PT228H.grib2 2026-04-30 16:38 853K
20260430T12Z_MSC_GDPS_WindV_IsbL-0050_LatLon0.15_PT228H.grib2 2026-04-30 16:38 1.0M
20260430T12Z_MSC_GDPS_WindV_IsbL-0100_LatLon0.15_PT228H.grib2 2026-04-30 16:38 1.1M
20260430T12Z_MSC_GDPS_WindV_IsbL-0150_LatLon0.15_PT228H.grib2 2026-04-30 16:38 1.0M
20260430T12Z_MSC_GDPS_WindV_IsbL-0175_LatLon0.15_PT228H.grib2 2026-04-30 16:38 1.0M
20260430T12Z_MSC_GDPS_WindV_IsbL-0200_LatLon0.15_PT228H.grib2 2026-04-30 16:38 832K
20260430T12Z_MSC_GDPS_WindV_IsbL-0225_LatLon0.15_PT228H.grib2 2026-04-30 16:38 841K
20260430T12Z_MSC_GDPS_WindV_IsbL-0250_LatLon0.15_PT228H.grib2 2026-04-30 16:38 902K
20260430T12Z_MSC_GDPS_WindV_IsbL-0275_LatLon0.15_PT228H.grib2 2026-04-30 16:38 929K
20260430T12Z_MSC_GDPS_WindV_IsbL-0300_LatLon0.15_PT228H.grib2 2026-04-30 16:38 920K
20260430T12Z_MSC_GDPS_WindV_IsbL-0350_LatLon0.15_PT228H.grib2 2026-04-30 16:38 934K
20260430T12Z_MSC_GDPS_WindV_IsbL-0400_LatLon0.15_PT228H.grib2 2026-04-30 16:38 876K
20260430T12Z_MSC_GDPS_WindV_IsbL-0450_LatLon0.15_PT228H.grib2 2026-04-30 16:38 877K
20260430T12Z_MSC_GDPS_WindV_IsbL-0500_LatLon0.15_PT228H.grib2 2026-04-30 16:38 1.1M
20260430T12Z_MSC_GDPS_WindV_IsbL-0550_LatLon0.15_PT228H.grib2 2026-04-30 16:38 1.1M
20260430T12Z_MSC_GDPS_WindV_IsbL-0600_LatLon0.15_PT228H.grib2 2026-04-30 16:38 1.1M
20260430T12Z_MSC_GDPS_WindV_IsbL-0650_LatLon0.15_PT228H.grib2 2026-04-30 16:38 1.2M
20260430T12Z_MSC_GDPS_WindV_IsbL-0700_LatLon0.15_PT228H.grib2 2026-04-30 16:38 1.2M
20260430T12Z_MSC_GDPS_WindV_IsbL-0750_LatLon0.15_PT228H.grib2 2026-04-30 16:38 1.2M
20260430T12Z_MSC_GDPS_WindV_IsbL-0800_LatLon0.15_PT228H.grib2 2026-04-30 16:38 1.3M
20260430T12Z_MSC_GDPS_WindV_IsbL-0850_LatLon0.15_PT228H.grib2 2026-04-30 16:38 1.4M
20260430T12Z_MSC_GDPS_WindV_IsbL-0875_LatLon0.15_PT228H.grib2 2026-04-30 16:38 1.4M
20260430T12Z_MSC_GDPS_WindV_IsbL-0900_LatLon0.15_PT228H.grib2 2026-04-30 16:38 1.5M
20260430T12Z_MSC_GDPS_WindV_IsbL-0925_LatLon0.15_PT228H.grib2 2026-04-30 16:38 1.5M
20260430T12Z_MSC_GDPS_WindV_IsbL-0950_LatLon0.15_PT228H.grib2 2026-04-30 16:38 1.4M
20260430T12Z_MSC_GDPS_WindV_IsbL-0970_LatLon0.15_PT228H.grib2 2026-04-30 16:38 1.4M
20260430T12Z_MSC_GDPS_WindV_IsbL-0985_LatLon0.15_PT228H.grib2 2026-04-30 16:38 1.4M
20260430T12Z_MSC_GDPS_WindV_IsbL-1000_LatLon0.15_PT228H.grib2 2026-04-30 16:38 1.4M
20260430T12Z_MSC_GDPS_WindV_IsbL-1015_LatLon0.15_PT228H.grib2 2026-04-30 16:38 1.3M